#timestamp,LO_Frequency,Hit,StdDev 
1526706015.7,286046998.7,N
1526706035.6,286046996.7,N
1526706055.4,286046999.5,N
1526706075.2,286046997.3,N
1526706095.1,286046996.6,N
1526706096.0,286046996.6,N
1526706115.8,286046999.3,N
1526706135.7,286046996.8,N
1526706155.5,286046999.2,N
1526706175.3,286046996.5,N
1526706195.2,286047000.6,N
1526706215.0,286047000.8,N
1526706215.9,286047000.8,N
1526706235.8,286046999.4,N
1526706255.6,286047000.8,N
1526706275.4,286046999.5,N
1526706295.3,286046999.3,N
1526706315.1,286046999.0,N
1526706335.9,286046999.1,N
1526706355.7,286046997.9,N
1526706375.5,286046995.6,N
1526706395.4,286046997.8,N
1526706415.2,286046996.9,N
1526706435.0,286047001.1,N
1526706435.9,286047001.1,N
1526706455.8,286047000.6,N
1526706475.6,286047000.7,N
1526706495.5,286047000.2,N
1526706515.3,286047001.1,N
1526706535.1,286046997.1,N
1526706555.9,286046997.7,N
1526706575.7,286046996.7,N
1526706595.5,286046997.5,N
1526706615.4,286046994.9,N
1526706635.2,286046997.0,N
1526706655.1,286046999.6,N
1526706656.0,286046999.6,N
1526706675.8,286046997.1,N
1526706695.6,286046996.9,N
1526706715.5,286046998.7,N
1526706735.3,286046997.9,N
1526706755.1,286046995.8,N
1526706775.9,286046996.2,N
1526706795.7,286046995.4,N
1526706815.6,286046997.4,N
1526706835.4,286046998.0,N
1526706855.2,286046995.2,N
1526706875.1,286046995.3,N
1526706876.0,286046995.3,N
1526706895.8,286046995.1,N
1526706915.7,286046997.5,N
1526706935.5,286046996.0,N
1526706955.3,286046995.3,N
1526706975.2,286046993.7,Y
1526706995.0,286046994.9,P
1526706995.9,286046994.9,P
1526707015.7,286046997.7,N
1526707035.6,286046997.9,N
1526707055.4,286046997.8,N
1526707075.3,286046997.5,N
1526707095.1,286046997.8,N
1526707096.0,286046997.8,N
1526707115.8,286046995.3,Y
1526707135.7,286047000.2,P
1526707155.5,286046999.7,N
1526707175.4,286047001.9,N
1526707195.2,286047002.4,N
1526707215.0,286047002.8,N
1526707215.9,286047002.8,N
1526707235.8,286047001.3,N
1526707255.6,286047002.5,N
1526707275.4,286047004.1,N
1526707295.3,286047003.5,N
1526707315.1,286047004.2,N
1526707335.9,286047001.5,N
1526707355.7,286047001.5,N
1526707375.5,286047002.2,N
1526707395.4,286046999.7,N
1526707415.2,286047004.3,N
1526707435.1,286047000.9,N
1526707436.0,286047000.9,N
1526707455.8,286046999.4,N
1526707475.6,286047000.2,N
1526707495.5,286046999.8,N
1526707515.3,286046999.8,N
1526707535.1,286047000.6,N
1526707555.9,286047000.3,N
1526707575.7,286046999.2,N
1526707595.6,286046997.0,N
1526707615.4,286046997.1,N
1526707635.2,286046995.4,N
1526707655.1,286046997.9,N
1526707656.0,286046997.9,N
1526707675.8,286046995.4,N
1526707695.7,286046995.3,N
1526707715.5,286046997.8,N
1526707735.3,286046999.6,N
1526707755.2,286046997.5,N
1526707775.0,286046996.6,N
1526707775.9,286046996.6,N
1526707795.7,286046995.6,N
1526707815.6,286046993.3,N
1526707835.4,286046995.3,N
1526707855.3,286046995.2,N
1526707875.1,286046995.2,N
1526707876.0,286046995.2,N
1526707895.8,286046996.2,N
1526707915.7,286046997.7,N
1526707935.5,286047001.2,N
1526707955.3,286046999.3,N
1526707975.2,286047001.0,N
1526707995.0,286046996.7,N
1526707995.9,286046996.7,N
1526708015.8,286046998.0,N
1526708035.6,286046995.9,N
1526708055.4,286046993.6,Y
1526708075.3,286046997.8,P
1526708095.1,286046998.9,P
1526708115.9,286046997.5,P
1526708135.7,286046997.5,Y
1526708155.5,286046998.3,P
1526708175.4,286046998.8,P
1526708195.2,286046999.0,N
1526708215.0,286046999.5,N
1526708215.9,286046999.5,N
1526708235.9,286046999.1,N
1526708255.7,286046999.1,N
1526708275.6,286046999.0,N
1526708295.4,286046998.1,Y
1526708315.2,286047000.7,P
1526708335.1,286047000.8,N
1526708336.0,286047000.8,N
1526708355.8,286046999.8,N
1526708375.7,286047000.9,N
1526708395.5,286047004.0,Y
1526708415.3,286047002.9,P
1526708435.2,286047003.7,N
1526708455.0,286047003.8,N
1526708455.9,286047003.8,N
1526708475.8,286047005.8,Y
1526708495.6,286047000.4,P
1526708515.4,286047000.8,N
1526708535.3,286046999.1,N
1526708555.1,286046997.3,N
1526708575.8,286046995.4,N
1526708595.7,286046994.9,N
1526708615.5,286046998.1,N
1526708635.4,286046998.2,N
1526708655.2,286046999.4,N
1526708675.0,286046998.5,N
1526708675.9,286046998.5,N
1526708695.8,286046999.8,N
1526708715.6,286046998.2,N
1526708735.4,286047002.3,N
1526708755.3,286046999.8,N
1526708775.1,286047000.6,N
1526708795.9,286047002.3,N
1526708815.7,286047001.6,N
1526708835.5,286047002.1,N
1526708855.4,286047001.4,N
1526708875.2,286047001.5,N
1526708895.0,286046999.7,N
1526708895.9,286046999.7,N
1526708915.8,286047000.0,N
1526708935.6,286047000.9,N
1526708955.5,286046998.2,N
1526708975.3,286047002.3,N
1526708995.1,286047003.4,N
1526709015.9,286047003.6,N
1526709035.7,286047003.0,N
1526709055.5,286047005.8,N
1526709075.4,286047004.0,N
1526709095.2,286047004.0,N
1526709115.1,286047002.6,N
1526709116.0,286047002.6,N
1526709135.8,286047001.9,N
1526709155.6,286047000.7,N
1526709175.5,286046999.9,N
1526709195.3,286046999.7,N
1526709215.1,286047002.6,N
1526709235.9,286046998.2,N
1526709255.7,286046999.7,N
1526709275.6,286047000.7,N
1526709295.4,286047002.4,N
1526709315.2,286047000.1,N
1526709335.1,286047002.0,N
1526709336.0,286047002.0,N
1526709355.8,286047002.8,N
1526709375.6,286047001.9,N
1526709395.5,286047003.0,N
1526709415.3,286047001.7,N
1526709435.2,286047003.2,N
1526709455.9,286047004.1,N
1526709475.7,286047004.0,N
1526709495.6,286047003.2,N
1526709515.4,286047001.4,N
1526709535.3,286047001.8,N
1526709555.1,286047004.4,N
1526709556.0,286047004.4,N
1526709575.8,286047001.8,N
1526709595.7,286047002.9,N
